Weather History for Palestine, TX

Change the Weather History Date:

Friday, August 23, 2013

  Actual Average (KTYR) Record (KTYR)
Temperature  
Mean Temperature 85 °F 83 °F  
Max Temperature 98 °F 92 °F 108 °F (1921)
Min Temperature 72 °F 73 °F 52 °F (1956)
Degree Days  
Heating Degree Days 0 0  
Month to date heating degree days 0  
Since 1 June heating degree days 0  
Since 1 July heating degree days 0  
Cooling Degree Days 20 18  
Month to date cooling degree days 431  
Year to date cooling degree days 1789  
Since 1 June cooling degree days 1420  
Growing Degree Days 35 (Base 50)    
Moisture  
Dew Point 67 °F    
Average Humidity 58    
Maximum Humidity 87    
Minimum Humidity 32    
Precipitation  
Precipitation 0.00 in 0.10 in 1.87 in (1977)
Month to date precipitation 2.01  
Year to date precipitation 28.41  
Snow  
Snow 0.00 in - - ()
Month to date snowfall  
Since 1 June snowfall  
Since 1 July snowfall  
Snow Depth -    
Sea Level Pressure  
Sea Level Pressure 30.00 in    
Wind  
Wind Speed 2 mph (East)    
Max Wind Speed 10 mph    
Max Gust Speed -    
Visibility 10 miles    
Events      
T = Trace of Precipitation, MM = Missing Value Source: NWS Daily Summary

Daily Weather History Graph

Daily Weather History Graph

Search for Another Location

Airport:

Trip Planner

Search our weather history database for the weather conditions in past years. The results will help you decide how hot, cold, wet, or windy it might be!

Date:

Astronomy

Aug. 23, 2013 Rise Set
Actual Time 6:52 AM CDT 7:57 PM CDT
Civil Twilight 6:27 AM CDT 8:22 PM CDT
Nautical Twilight 5:57 AM CDT 8:52 PM CDT
Astronomical Twilight 5:26 AM CDT 9:23 PM CDT
Moon 9:33 PM CDT (8/23) 9:34 AM CDT (8/23)
Length of Visible Light 13h 54m
Length of Day
13h 04m
Waning Gibbous, 91% of the Moon is Illuminated
Aug 23
Waning Gibbous
Aug 28
Last Quarter
Sep 5
New
Sep 12
First Quarter
Sep 19
Full

Hourly Weather History & Observations

Time (CDT) Temp. Heat Index Dew Point Humidity Pressure Visibility Wind Dir Wind Speed Gust Speed Precip Events Conditions
12:15 AM 78.8 °F - 68.9 °F 72% 30.03 in 10.0 mi Calm Calm - N/A   Clear
12:35 AM 79.5 °F - 68.4 °F 69% 30.03 in 10.0 mi Calm Calm - N/A   Clear
12:55 AM 78.6 °F - 68.5 °F 71% 30.03 in 10.0 mi South 3.5 mph - N/A   Clear
1:15 AM 78.3 °F - 68.4 °F 71% 30.03 in 10.0 mi Calm Calm - N/A   Clear
1:35 AM 77.4 °F - 68.2 °F 73% 30.03 in 10.0 mi Calm Calm - N/A   Clear
1:55 AM 78.1 °F - 68.4 °F 72% 30.02 in 10.0 mi SE 3.5 mph - N/A   Clear
2:15 AM 76.6 °F - 68.9 °F 77% 30.02 in 10.0 mi SE 3.5 mph - N/A   Clear
2:35 AM 76.6 °F - 69.1 °F 77% 30.02 in 10.0 mi Calm Calm - N/A   Clear
2:55 AM 77.4 °F - 68.9 °F 75% 30.01 in 10.0 mi Calm Calm - N/A   Clear
3:15 AM 77.0 °F - 69.1 °F 76% 30.01 in 10.0 mi Calm Calm - N/A   Clear
3:35 AM 76.1 °F - 68.7 °F 78% 30.01 in 10.0 mi Calm Calm - N/A   Clear
3:55 AM 75.7 °F - 69.1 °F 80% 30.02 in 10.0 mi Calm Calm - N/A   Clear
4:15 AM 75.9 °F - 68.9 °F 79% 30.01 in 10.0 mi SSE 3.5 mph - N/A   Clear
4:35 AM 74.8 °F - 69.3 °F 83% 30.02 in 10.0 mi Calm Calm - N/A   Clear
4:55 AM 74.8 °F - 69.4 °F 83% 30.02 in 10.0 mi Calm Calm - N/A   Clear
5:15 AM 75.4 °F - 69.1 °F 81% 30.03 in 10.0 mi Calm Calm - N/A   Clear
5:35 AM 74.3 °F - 69.1 °F 84% 30.03 in 10.0 mi Calm Calm - N/A   Clear
5:55 AM 74.5 °F - 68.7 °F 82% 30.03 in 10.0 mi Calm Calm - N/A   Clear
6:15 AM 73.2 °F - 68.5 °F 85% 30.03 in 10.0 mi Calm Calm - N/A   Clear
6:35 AM 72.9 °F - 68.5 °F 86% 30.03 in 10.0 mi Calm Calm - N/A   Clear
6:55 AM 72.5 °F - 68.4 °F 87% 30.03 in 10.0 mi Calm Calm - N/A   Clear
7:15 AM 72.7 °F - 68.4 °F 86% 30.04 in 10.0 mi Calm Calm - N/A   Clear
7:35 AM 74.3 °F - 68.9 °F 83% 30.04 in 10.0 mi Calm Calm - N/A   Scattered Clouds
7:55 AM 74.7 °F - 69.8 °F 85% 30.04 in 10.0 mi Calm Calm - N/A   Clear
8:15 AM 75.7 °F - 69.8 °F 82% 30.05 in 10.0 mi Calm Calm - N/A   Clear
8:35 AM 77.4 °F - 69.6 °F 77% 30.05 in 10.0 mi Calm Calm - N/A   Clear
8:55 AM 78.1 °F - 69.8 °F 76% 30.06 in 10.0 mi Calm Calm - N/A   Clear
9:15 AM 80.1 °F 83.4 °F 70.5 °F 73% 30.07 in 10.0 mi Calm Calm - N/A   Clear
9:35 AM 81.0 °F 84.7 °F 70.9 °F 71% 30.06 in 10.0 mi Calm Calm - N/A   Clear
9:55 AM 82.4 °F 87.0 °F 71.2 °F 69% 30.06 in 10.0 mi WNW 3.5 mph - N/A   Clear
10:15 AM 83.7 °F 88.0 °F 70.5 °F 64% 30.06 in 10.0 mi Calm Calm - N/A   Clear
10:35 AM 85.6 °F 90.1 °F 69.6 °F 59% 30.06 in 10.0 mi SSW 3.5 mph - N/A   Clear
10:55 AM 86.2 °F 90.0 °F 68.9 °F 56% 30.06 in 10.0 mi NE 4.6 mph - N/A   Clear
11:15 AM 87.8 °F 92.2 °F 69.1 °F 54% 30.06 in 10.0 mi Calm Calm - N/A   Clear
11:35 AM 89.1 °F 93.3 °F 68.5 °F 51% 30.05 in 10.0 mi ESE 3.5 mph - N/A   Clear
11:55 AM 90.9 °F 94.8 °F 68.4 °F 47% 30.05 in 10.0 mi SE 4.6 mph - N/A   Scattered Clouds
12:15 PM 91.6 °F 95.7 °F 67.8 °F 46% 30.04 in 10.0 mi WNW 3.5 mph - N/A   Mostly Cloudy
12:35 PM 90.7 °F 94.5 °F 67.8 °F 47% 30.04 in 10.0 mi ESE 3.5 mph - N/A   Scattered Clouds
12:55 PM 93.6 °F 95.0 °F 64.0 °F 37% 30.03 in 10.0 mi ESE 4.6 mph - N/A   Scattered Clouds
1:15 PM 93.2 °F 96.2 °F 66.0 °F 41% 30.03 in 10.0 mi NNE 6.9 mph - N/A   Scattered Clouds
1:35 PM 92.8 °F 95.6 °F 66.2 °F 41% 30.02 in 10.0 mi East 5.8 mph - N/A   Clear
1:55 PM 94.3 °F 97.7 °F 66.2 °F 40% 30.00 in 10.0 mi ENE 5.8 mph - N/A   Scattered Clouds
2:15 PM 94.6 °F 97.3 °F 65.1 °F 38% 30.00 in 10.0 mi ENE 4.6 mph - N/A   Clear
2:35 PM 94.6 °F 97.3 °F 65.5 °F 38% 29.99 in 10.0 mi East 5.8 mph - N/A   Scattered Clouds
2:55 PM 96.1 °F 98.8 °F 65.1 °F 36% 29.98 in 10.0 mi NNE 8.1 mph - N/A   Scattered Clouds
3:15 PM 97.7 °F 101.2 °F 65.7 °F 35% 29.97 in 10.0 mi East 8.1 mph - N/A   Scattered Clouds
3:35 PM 97.2 °F 99.6 °F 64.8 °F 34% 29.96 in 10.0 mi East 5.8 mph - N/A   Scattered Clouds
3:55 PM 97.2 °F 99.6 °F 64.4 °F 34% 29.95 in 10.0 mi SE 9.2 mph - N/A   Scattered Clouds
4:15 PM 98.1 °F 101.2 °F 65.1 °F 34% 29.94 in 10.0 mi NE 10.4 mph - N/A   Scattered Clouds
4:35 PM 97.3 °F 99.4 °F 64.0 °F 33% 29.94 in 10.0 mi NE 4.6 mph - N/A   Scattered Clouds
4:55 PM 97.5 °F 99.2 °F 63.3 °F 32% 29.93 in 10.0 mi NNE 3.5 mph - N/A   Scattered Clouds
5:15 PM 98.1 °F 100.7 °F 64.0 °F 33% 29.92 in 10.0 mi ENE 6.9 mph - N/A   Scattered Clouds
5:35 PM 97.3 °F 99.4 °F 63.5 °F 33% 29.92 in 10.0 mi ENE 8.1 mph - N/A   Clear
5:55 PM 97.0 °F 98.8 °F 63.7 °F 33% 29.92 in 10.0 mi East 4.6 mph - N/A   Clear
6:15 PM 97.2 °F 99.6 °F 64.4 °F 34% 29.92 in 10.0 mi ENE 6.9 mph - N/A   Clear
6:35 PM 96.1 °F 97.8 °F 63.9 °F 34% 29.92 in 10.0 mi NE 6.9 mph - N/A   Clear
6:55 PM 95.4 °F 97.1 °F 63.9 °F 35% 29.92 in 10.0 mi NE 6.9 mph - N/A   Clear
7:15 PM 95.0 °F 97.0 °F 64.0 °F 36% 29.92 in 10.0 mi NE 8.1 mph - N/A   Clear
7:35 PM 94.1 °F 95.9 °F 63.9 °F 37% 29.92 in 10.0 mi ENE 4.6 mph - N/A   Clear
7:55 PM 93.2 °F 94.9 °F 64.0 °F 38% 29.93 in 10.0 mi East 8.1 mph - N/A   Scattered Clouds
8:15 PM 91.4 °F 93.2 °F 64.6 °F 41% 29.94 in 10.0 mi South 8.1 mph - N/A   Clear
8:35 PM 89.2 °F 91.6 °F 65.8 °F 46% 29.94 in 10.0 mi South 5.8 mph - N/A   Scattered Clouds
8:55 PM 87.4 °F 90.1 °F 66.6 °F 50% 29.95 in 10.0 mi SSE 3.5 mph - N/A   Scattered Clouds
9:15 PM 86.0 °F 88.8 °F 66.9 °F 53% 29.95 in 10.0 mi Calm Calm - N/A   Clear
9:35 PM 84.4 °F 87.1 °F 67.1 °F 56% 29.97 in 10.0 mi Calm Calm - N/A   Clear
9:55 PM 82.6 °F 85.5 °F 68.0 °F 61% 29.97 in 10.0 mi Calm Calm - N/A   Clear
10:15 PM 83.1 °F 85.9 °F 67.3 °F 59% 29.98 in 10.0 mi SE 3.5 mph - N/A   Clear
10:35 PM 82.8 °F 85.3 °F 67.1 °F 59% 29.98 in 10.0 mi East 4.6 mph - N/A   Clear
10:55 PM 83.3 °F 85.7 °F 66.7 °F 57% 29.98 in 10.0 mi East 4.6 mph - N/A   Clear
11:15 PM 83.3 °F 85.9 °F 67.1 °F 58% 29.99 in 10.0 mi East 6.9 mph - N/A   Clear
11:35 PM 82.8 °F 85.3 °F 67.1 °F 59% 29.99 in 10.0 mi East 5.8 mph - N/A   Clear
11:55 PM 82.6 °F 85.1 °F 67.1 °F 59% 29.99 in 10.0 mi East 5.8 mph - N/A   Clear